Location: *
(50.5492°N, 7.7469°E)
Time: 22:01:13
(UTC+00:00)

STARLINK-68 - Pass Details

Date: 21 October 2019
Orbit: 548 x 551 km, 53.0° (Epoch: 17 November)

Event Time Altitude Azimuth Distance (km) Brightness Sun altitude
Rises 18:52:04 0° 286° (WNW) 2,721 8.6 -23.9°
Reaches altitude 10° 18:54:19 10° 288° (WNW) 1,826 7.3 -24.2°
Enters shadow 18:57:55 63° 317° (NW) 619 3.9 -24.8°
